#timestamp,LO_Frequency,Hit 
1499932815.1,286040827.0,N
1499932835.9,286040827.3,N
1499932855.7,286040826.8,N
1499932875.6,286040827.7,N
1499932895.4,286040827.7,N
1499932915.2,286040827.8,N
1499932935.1,286040827.8,N
1499932936.0,286040827.8,N
1499932955.8,286040829.9,N
1499932975.7,286040829.1,N
1499932995.5,286040828.9,N
1499933015.3,286040829.2,N
1499933035.2,286040831.0,N
1499933055.0,286040830.5,N
1499933055.9,286040830.5,N
1499933075.8,286040830.0,N
1499933095.6,286040830.9,N
1499933115.4,286040830.6,N
1499933135.3,286040832.5,N
1499933155.1,286040831.0,N
1499933175.9,286040828.6,N
1499933195.7,286040830.7,N
1499933215.5,286040834.6,N
1499933235.4,286040832.9,N
1499933255.2,286040832.5,N
1499933275.0,286040830.4,N
1499933275.9,286036068.8,N
1499933295.8,286040833.1,N
1499933315.6,286040830.3,N
1499933335.5,286040830.5,N
1499933355.3,286040830.2,N
1499933405.2,286040831.9,Y
1499933415.1,286043812.6,N
1499933416.0,286043812.6,N
1499933435.8,286047004.4,N
1499933455.7,286047002.3,N
1499933475.5,286047000.6,N
1499933495.3,286046999.0,N
1499933515.2,286046997.0,N
1499933535.0,286047001.1,N
1499933535.9,286047001.1,N
1499933555.8,286047003.8,N
1499933575.6,286047001.5,N
1499933595.4,286047003.5,N
1499933615.3,286047003.7,N
1499933635.1,286047006.0,N
1499933655.8,286047002.8,N
1499933675.7,286047004.1,N
1499933695.5,286047002.9,N
1499933715.4,286047005.6,N
1499933735.2,286047005.5,N
1499933755.0,286047004.8,N
1499933755.9,286047004.8,N
1499933775.8,286047005.1,N
1499933795.6,286047004.2,N
1499933815.5,286047001.5,N
1499933835.3,286047005.5,N
1499933855.1,286047005.0,N
1499933875.9,286047007.4,N
1499933895.7,286047005.5,N
1499933915.6,286047006.0,N
1499933935.4,286047005.5,N
1499933955.2,286047007.1,N
1499933975.1,286047004.3,N
1499933976.0,286047004.3,N
1499933995.8,286047005.7,N
1499934015.7,286047005.3,N
1499934035.5,286047003.0,N
1499934055.3,286047004.8,N
1499934075.2,286047004.2,N
1499934095.0,286047002.7,N
1499934095.9,286047002.7,N
1499934115.7,286047002.7,N
1499934135.6,286047003.6,N
1499934155.4,286047004.4,N
1499934175.3,286047001.5,N
1499934195.1,286047001.2,N
1499934196.0,286047001.2,N
1499934215.8,286046998.8,N
1499934235.7,286047000.2,N
1499934255.5,286046999.9,N
1499934275.4,286047002.7,N
1499934295.2,286047002.4,N
1499934315.0,286047001.4,N
1499934315.9,286047001.4,N
1499934335.8,286047005.5,N
1499934355.6,286047005.8,N
1499934375.4,286047007.1,N
1499934395.3,286047005.7,N
1499934415.1,286047004.8,N
1499934435.9,286047002.9,N
1499934455.7,286047001.5,N
1499934475.5,286047004.3,N
1499934495.4,286046999.8,N
1499934515.2,286046999.7,N
1499934535.0,286047002.0,N
1499934535.9,286047002.0,N
1499934555.8,286047002.0,N
1499934575.6,286047005.9,N
1499934595.5,286047006.0,N
1499934615.3,286047005.3,N
1499934635.1,286047002.9,N
1499934655.9,286047004.1,N
1499934675.7,286047002.2,N
1499934695.6,286047004.0,N
1499934715.4,286047003.3,N
1499934735.2,286047005.0,N
1499934755.1,286047006.1,N
1499934756.0,286047006.1,N
1499934775.8,286047007.0,N
1499934795.6,286047007.0,N
1499934815.5,286047009.2,N
1499934835.3,286047008.4,N
1499934855.2,286047009.0,N
1499934875.9,286047008.3,N
1499934895.7,286047008.4,N
1499934915.6,286047008.7,N
1499934935.4,286047006.3,N
1499934955.3,286047008.7,N
1499934975.1,286047008.3,N
1499934976.0,286047008.3,N
1499934995.8,286047008.6,N
1499935015.7,286047007.4,N
1499935035.5,286047008.9,N
1499935055.4,286047006.3,N
1499935075.2,286047007.4,N
1499935095.0,286047004.5,N
1499935095.9,286047004.5,N
1499935115.8,286047006.2,N
1499935135.6,286047006.4,N
1499935155.4,286047006.7,N
1499935175.3,286047007.2,N
1499935195.1,286047008.8,N
1499935215.9,286047008.5,N
1499935235.7,286047008.0,N
1499935255.5,286047009.0,N
1499935275.4,286047004.5,N
1499935295.2,286047008.0,N
1499935315.0,286047007.4,N
1499935316.0,286047007.4,N
1499935335.8,286047006.0,N
1499935355.6,286047004.3,N
1499935375.5,286047002.5,N
1499935395.3,286047004.4,N
1499935415.1,286047003.9,N
1499935435.9,286047001.3,N
1499935455.7,286047003.5,N
1499935475.6,286047004.2,N
1499935495.4,286047005.2,N
1499935515.2,286047005.2,N
1499935535.1,286047005.0,N
1499935536.0,286047005.0,N
1499935555.8,286047007.1,N
1499935575.6,286047006.4,N
1499935595.5,286047008.3,N
1499935615.3,286047006.9,N
1499935635.2,286047007.4,N
1499935655.0,286047006.6,N
1499935655.9,286047006.6,N
1499935675.7,286047006.3,N
1499935695.6,286047008.5,N
1499935715.4,286047009.9,N
1499935735.3,286047010.4,N
1499935755.1,286047009.9,N
1499935756.0,286047009.9,N
1499935775.8,286047012.4,N
1499935795.7,286047010.6,N
1499935815.5,286047006.1,N
1499935835.4,286047009.1,N
1499935855.2,286047010.8,N
1499935875.0,286047009.0,N
1499935875.9,286047009.0,N
1499935895.8,286047008.6,N
1499935915.6,286047005.1,N
1499935935.5,286047009.0,N
1499935955.3,286047010.7,N
1499935975.1,286047008.4,N
1499935995.9,286047008.4,N
1499936015.7,286047008.8,N
1499936035.5,286047008.4,N
1499936055.4,286047007.7,N
1499936075.2,286047010.8,N
1499936095.1,286047007.7,N
1499936096.0,286047007.7,N
1499936115.8,286047009.5,N
1499936135.6,286047011.1,N
1499936155.5,286047012.2,N
1499936175.3,286047009.3,N
1499936195.1,286047012.4,N
1499936215.9,286047008.2,N
1499936235.7,286047008.8,N
1499936255.6,286047005.4,N
1499936275.4,286047005.8,N
1499936295.2,286047006.7,N
1499936315.1,286047005.0,N
1499936316.0,286047005.0,N
1499936335.8,286047004.9,N
1499936355.7,286047003.2,N
1499936375.5,286047006.2,N
1499936395.3,286047008.3,N
